Visibility
13.1 14.8 14.8 15.0 15.0 15.0 15.0 15.0 15.0 15.0 15.0 15.0 15.0 15.0 15.0 15.0 15.0 15.0 15.0 15.0 15.0 15.0 15.0 15.0 15.0 15.0 15.0 15.0 15.0 13.2 15.0 7.8 3.0 7.2 15.0 15.0 11.9 8.5
15.0 15.0 15.0 15.0 15.0 15.0 15.0 15.0 15.0 9.1 0.4 15.0 15.0 15.0 15.0 15.0 15.0 15.0 15.0 15.0 15.0 15.0 15.0 15.0 15.0 15.0 15.0 15.0 15.0 13.2 0.2 11.8 6.5 14.5 15.0 15.0 12.8 11.1
15.0 15.0 14.9 15.0 15.0 15.0 15.0 15.0 0.1 0.2 0.4 15.0 15.0 15.0 15.0 15.0 15.0 15.0 15.0 15.0 15.0 15.0 15.0 15.0 15.0 15.0 15.0 15.0 15.0 15.0 11.0 5.4 4.1 7.5 15.0 15.0 9.5 6.8
15.0 15.0 15.0 15.0 15.0 15.0 15.0 14.2 14.3 15.0 1.5 15.0 0.4 0.4 10.4 15.0 15.0 15.0 15.0 15.0 15.0 15.0 15.0 15.0 15.0 15.0 15.0 15.0 15.0 15.0 0.1 0.7 2.2 4.0 6.2 12.4 3.0 1.7
15.0 15.0 15.0 15.0 15.0 15.0 15.0 15.0 15.0 15.0 13.8 15.0 2.0 4.2 0.0 11.1 15.0 15.0 15.0 15.0 15.0 15.0 15.0 15.0 15.0 15.0 15.0 15.0 15.0 15.0 0.1 0.1 0.3 0.2 6.8 0.3 1.7 1.7
15.0 15.0 15.0 15.0 15.0 15.0 15.0 15.0 15.0 15.0 15.0 15.0 7.1 0.0 0.0 0.1 15.0 15.0 15.0 15.0 15.0 15.0 15.0 15.0 15.0 15.0 15.0 10.5 3.3 5.5 0.1 0.1 0.1 0.1 0.1 0.2 0.8 2.0
15.0 15.0 15.0 15.0 15.0 15.0 15.0 15.0 15.0 1.0 0.3 0.3 0.4 0.0 0.0 0.0 0.1 15.0 15.0 15.0 15.0 15.0 15.0 15.0 13.7 0.2 0.3 3.7 4.4 0.1 0.1 0.2 0.1 0.4 0.3 0.8 2.5 3.3
15.0 15.0 15.0 15.0 15.0 15.0 0.7 0.1 1.4 0.2 0.1 0.3 0.1 0.1 0.0 14.0 15.0 15.0 1.5 0.0 0.0 14.8 0.7 15.0 11.0 0.2 0.1 0.1 0.1 0.1 0.2 0.2 0.4 0.9 2.5 2.7 2.7 3.1
15.0 15.0 15.0 15.0 15.0 15.0 15.0 0.0 0.0 0.0 0.1 15.0 1.2 1.9 0.5 15.0 7.8 0.1 0.1 0.1 0.9 11.0 2.6 15.0 10.7 0.3 1.2 0.1 0.1 0.1 0.2 0.4 2.9 2.6 4.6 3.6 4.1 4.8
15.0 15.0 15.0 15.0 8.8 11.7 10.7 0.1 0.4 3.1 0.1 0.2 15.0 15.0 15.0 15.0 15.0 8.5 8.3 0.1 0.1 0.1 0.2 15.0 0.1 0.3 14.1 7.3 0.1 0.8 1.1 3.8 6.1 3.7 6.6 4.8 5.3 14.7
15.0 13.8 8.9 5.8 2.6 10.0 0.1 0.0 0.0 0.1 15.0 15.0 15.0 14.9 15.0 15.0 15.0 0.1 0.0 0.0 0.1 12.5 0.0 1.2 0.1 0.1 0.2 0.2 0.1 3.5 4.1 5.3 3.9 5.2 8.6 5.8 4.4 5.7
4.5 5.7 3.3 5.2 15.0 3.8 0.1 0.1 0.0 0.0 0.0 0.1 0.5 12.9 15.0 15.0 0.4 3.5 0.2 0.0 2.0 1.2 0.1 2.1 0.0 0.0 0.3 0.0 0.2 1.7 0.3 2.7 4.6 3.3 7.7 7.8 7.4 8.7
3.7 4.1 3.7 5.0 11.4 15.0 12.2 0.4 0.1 0.2 0.1 0.1 0.1 0.1 0.1 0.1 0.1 0.3 0.6 0.0 0.0 0.4 2.0 1.2 1.7 0.1 0.2 0.1 0.1 0.3 2.6 1.3 2.3 5.6 11.0 8.5 6.4 15.0
3.6 5.8 5.7 11.8 15.0 15.0 2.3 0.4 0.2 0.1 0.1 0.1 0.0 0.0 0.0 0.0 0.0 0.1 3.4 1.0 7.9 15.0 0.1 15.0 13.2 0.2 13.7 0.2 0.1 0.0 0.3 3.4 4.9 3.5 4.5 5.3 8.8 15.0
0.4 5.4 12.0 15.0 15.0 2.2 10.0 15.0 0.1 0.1 0.0 0.0 0.0 0.0 0.0 0.1 0.2 0.1 0.1 1.1 1.2 1.7 1.8 15.0 15.0 15.0 15.0 2.8 0.1 0.0 0.1 0.0 7.6 6.9 15.0 15.0 15.0 15.0
0.4 0.1 0.1 0.0 0.1 0.1 0.0 0.1 0.0 0.0 0.0 0.0 0.0 0.0 0.0 0.0 0.0 0.6 0.1 0.1 0.0 0.0 0.0 12.6 12.7 15.0 0.0 0.2 9.1 0.0 0.2 0.1 0.0 0.1 1.9 15.0 15.0 15.0
0.1 0.0 0.0 0.0 0.0 0.0 0.0 0.0 0.0 0.0 0.0 0.0 0.0 0.0 0.0 0.0 0.0 0.0 0.0 0.1 0.0 0.0 0.0 0.0 0.0 0.0 0.4 0.2 0.1 3.9 0.1 0.1 0.0 0.1 9.2 1.5 10.0 15.0
0.1 0.0 0.0 0.0 0.0 0.0 0.0 0.0 0.0 0.0 0.0 0.0 0.0 0.0 0.1 0.2 0.0 0.0 0.0 3.5 1.1 0.1 0.1 0.2 0.1 0.1 0.1 0.0 0.3 0.1 0.0 0.1 0.1 0.1 4.9 12.5 0.4 0.2
0.0 0.0 0.0 0.0 0.0 0.0 0.0 0.0 0.0 0.0 0.0 0.0 0.0 0.0 0.0 0.0 0.1 0.0 0.2 1.2 0.6 0.2 0.1 8.6 15.0 14.8 0.2 0.1 0.1 0.0 0.2 0.1 0.1 0.1 0.1 3.0 4.6 4.2
0.0 0.0 0.0 0.0 0.0 0.0 0.0 0.0 0.0 0.0 0.0 0.0 0.0 0.0 0.0 0.1 0.1 0.2 0.7 1.8 0.6 0.2 0.1 0.1 0.1 0.1 14.7 15.0 0.6 0.1 0.1 0.3 2.0 0.3 0.1 0.1 0.1 0.2
0.0 0.0 0.0 0.0 0.0 0.0 0.0 0.0 0.0 0.0 0.0 0.0 0.0 0.0 0.0 0.0 15.0 1.4 4.2 2.8 0.8 0.2 0.2 0.2 0.2 0.3 10.9 2.2 0.3 0.1 0.0 0.0 7.6 15.0 3.4 0.8 0.2 0.3
0.1 0.1 0.1 0.1 0.1 0.0 0.0 0.0 0.0 0.0 0.0 0.0 0.0 0.0 0.0 0.0 0.2 6.4 15.0 2.1 4.0 8.8 0.2 0.1 0.1 0.1 0.1 1.3 13.0 11.8 0.9 0.0 0.0 0.1 3.6 12.1 7.1 0.3
0.1 0.1 0.1 0.1 0.1 0.0 0.0 0.0 0.0 0.0 0.0 0.0 0.0 0.0 0.0 0.0 0.0 0.1 14.4 14.4 0.4 0.2 0.3 0.1 0.1 0.1 0.1 0.2 0.5 0.1 0.1 0.1 0.3 0.2 0.1 0.1 3.7 13.8